EW9479 Weather Reports


Display with metric or nautical units.
time (UTC)temp
F
wind
direction
speed
MPH
gust
MPH
rain 1hr
in
rain 24hr
in
rain mn
in
humidity
%
barometer
mb
20260506230040 54 35 2.0 7.0 0.00 0.40 0.40 90 1014.8
20260506224538 54 63 3.0 6.0 0.00 0.40 0.40 91 1014.1
20260506223038 54 29 2.0 5.0 0.01 0.40 0.40 91 1014.2
20260506221545 54 15 1.0 5.0 0.01 0.40 0.40 91 1014.9
20260506220038 55 72 1.0 5.0 0.02 0.40 0.40 92 1014.2
20260506214537 55 46 2.0 5.0 0.03 0.40 0.40 92 1014.7
20260506213040 54 64 2.0 4.0 0.03 0.39 0.39 92 1015.2
20260506211538 54 92 1.0 4.0 0.06 0.39 0.39 92 1015.6
20260506210038 53 57 1.0 3.0 0.05 0.38 0.38 92 1014.8
20260506204537 53 0 1.0 5.0 0.04 0.38 0.37 91 1015.7
20260506203042 53 58 2.0 5.0 0.02 0.36 0.35 90 1015.8
20260506201600 54 65 3.0 9.0 0.00 0.34 0.33 90 1015.9
20260506200040 54 349 3.0 8.0 0.00 0.34 0.33 91 1015.6
20260506194548 54 19 2.0 7.0 0.00 0.34 0.33 91 1015.4
20260506193050 54 27 3.0 6.0 0.00 0.34 0.33 91 1016.2
20260506191544 54 356 1.0 5.0 0.00 0.34 0.33 90 1015.8
20260506190037 54 305 1.0 6.0 0.00 0.34 0.33 91 1015.7
20260506184549 54 282 3.0 6.0 0.00 0.34 0.33 91 1015.5
20260506183040 53 329 1.0 5.0 0.00 0.34 0.33 93 1015.6
20260506181540 53 46 2.0 6.0 0.00 0.34 0.33 94 1015.4
20260506180038 53 9 2.0 5.0 0.00 0.34 0.33 93 1015.5
20260506174542 53 272 2.0 6.0 0.00 0.40 0.33 94 1015.6
20260506173059 53 68 2.0 6.0 0.00 0.40 0.33 94 1015.7
20260506171551 53 321 1.0 5.0 0.00 0.40 0.33 94 1015.9
20260506170040 53 359 1.0 7.0 0.00 0.40 0.33 94 1015.5
20260506164538 54 316 2.0 7.0 0.00 0.72 0.33 95 1015.0
20260506163052 53 89 1.0 9.0 0.00 0.72 0.33 95 1015.1
20260506161545 53 298 2.0 7.0 0.00 0.72 0.33 95 1015.3
20260506160043 52 300 2.0 7.0 0.00 0.72 0.33 95 1014.2
20260506154550 52 65 1.0 6.0 0.00 0.86 0.33 95 1015.0
20260506153041 53 339 2.0 6.0 0.00 0.86 0.33 95 1015.4
20260506151539 52 271 2.0 6.0 0.00 0.86 0.33 95 1014.0
20260506150039 52 323 1.0 4.0 0.00 0.86 0.33 95 1014.5
20260506144538 52 44 1.0 3.0 0.00 0.94 0.33 95 1014.4
20260506143042 52 63 2.0 6.0 0.00 0.94 0.33 95 1014.4
20260506141542 53 11 0.0 4.0 0.00 0.94 0.33 95 1014.7
20260506140047 53 75 1.0 4.0 0.00 0.94 0.33 95 1014.3
20260506134537 53 323 1.0 3.0 0.00 0.94 0.33 95 1014.3
20260506133038 53 308 1.0 4.0 0.00 0.94 0.33 95 1014.3
20260506131538 53 359 0.0 2.0 0.00 0.94 0.33 95 1013.7
20260506130043 52 0 1.0 3.0 0.00 0.94 0.33 95 1013.3
20260506124542 52 294 0.0 4.0 0.00 0.94 0.33 95 1013.1
20260506123038 52 321 1.0 5.0 0.00 0.94 0.33 95 1012.9
20260506121538 52 0 2.0 4.0 0.00 0.94 0.33 95 1012.4
20260506120037 52 0 0.0 3.0 0.00 0.94 0.33 95 1011.8
20260506114539 52 0 1.0 3.0 0.00 0.94 0.33 95 1012.1
20260506113043 52 0 0.0 4.0 0.00 0.94 0.33 95 1011.2
20260506111543 52 52 1.0 3.0 0.02 0.94 0.33 95 1011.0
20260506110038 52 11 1.0 3.0 0.05 0.94 0.33 94 1012.6
20260506104542 52 278 1.0 9.0 0.07 0.94 0.33 94 1013.1
20260506103037 53 327 2.0 9.0 0.06 0.93 0.32 94 1011.9
20260506101538 53 314 2.0 7.0 0.05 0.92 0.31 94 1011.5
20260506100043 53 323 1.0 5.0 0.02 0.89 0.28 94 1010.8
20260506094546 53 316 2.0 6.0 0.00 0.87 0.26 94 1010.2
20260506093101 53 316 3.0 4.0 0.01 0.87 0.26 94 1010.6
20260506091540 53 0 2.0 6.0 0.05 0.87 0.26 93 1009.8
20260506090040 54 47 5.0 11.0 0.10 0.87 0.26 92 1009.8
20260506084537 55 333 3.0 10.0 0.10 0.87 0.26 93 1009.9
20260506083044 56 342 4.0 12.0 0.09 0.86 0.25 92 1009.6
20260506081540 58 33 6.0 10.0 0.06 0.82 0.21 91 1009.4
20260506073037 66 233 2.0 13.0 0.16 0.77 0.16 92 1008.6
20260506071544 67 252 7.0 21.0 0.15 0.76 0.15 88 1008.5
20260506061552 71 193 7.0 15.0 0.00 0.61 0.00 82 1008.2
20260506044545 70 205 6.0 11.0 0.00 0.61 0.61 81 1008.5
20260506043037 69 198 4.0 15.0 0.00 0.61 0.61 81 1008.6
20260506041554 69 186 7.0 11.0 0.00 0.61 0.61 81 1009.0
20260506040043 69 202 4.0 12.0 0.00 0.61 0.61 81 1008.9
20260506034539 69 184 5.0 12.0 0.00 0.61 0.61 81 1008.7
20260506033050 69 203 6.0 11.0 0.00 0.61 0.61 81 1009.0
20260506031541 69 220 5.0 9.0 0.00 0.61 0.61 81 1009.4
20260506030043 69 203 6.0 8.0 0.00 0.61 0.61 82 1009.5
20260506024543 69 214 5.0 10.0 0.00 0.61 0.61 82 1009.4
20260506023050 69 168 4.0 12.0 0.00 0.61 0.61 82 1009.2
20260506021539 68 122 3.0 9.0 0.00 0.61 0.61 83 1009.1
20260506020113 68 186 3.0 9.0 0.00 0.61 0.61 83 1009.2
20260506014545 68 226 4.0 7.0 0.00 0.61 0.61 83 1009.0
20260506013043 68 210 2.0 7.0 0.00 0.61 0.61 83 1008.9
20260506011548 68 214 3.0 6.0 0.00 0.61 0.61 83 1008.7
20260506010040 68 184 2.0 9.0 0.00 0.61 0.61 83 1009.0
20260506004542 68 217 3.0 10.0 0.00 0.61 0.61 83 1008.9
20260506003047 68 205 2.0 6.0 0.00 0.61 0.61 83 1008.6
20260506001549 68 202 2.0 8.0 0.00 0.61 0.61 84 1008.6
20260506000056 68 198 5.0 10.0 0.00 0.61 0.61 84 1008.7
20260505234544 68 162 3.0 8.0 0.00 0.61 0.61 84 1008.8
20260505233048 67 181 4.0 9.0 0.00 0.61 0.61 84 1008.9
20260505231546 67 206 6.0 9.0 0.00 0.61 0.61 84 1009.0